Temp
-0 -0 -0 -1 -1 -1 -1 -1 -1 -1 -2 -2 -3 -4 -4 -4 -4 -4 -4 -5 -5 -6
-1 -1 -1 -1 -1 -2 -2 -2 -2 -2 -3 -3 -4 -4 -4 -4 -4 -5 -5 -6 -6 -6
-2 -2 -2 -2 -2 -2 -2 -3 -3 -3 -3 -4 -5 -5 -5 -5 -5 -5 -6 -6 -7 -7
-2 -3 -3 -3 -3 -3 -3 -3 -4 -4 -4 -5 -5 -5 -5 -5 -6 -6 -6 -7 -8 -7
-3 -3 -3 -4 -4 -4 -4 -4 -4 -5 -5 -6 -5 -5 -6 -6 -6 -6 -6 -7 -8 -8
-4 -4 -4 -4 -4 -4 -5 -5 -5 -6 -6 -6 -6 -6 -6 -6 -6 -7 -8 -9 -9 -9
-6 -6 -5 -5 -5 -5 -5 -6 -7 -6 -6 -6 -6 -6 -6 -7 -7 -8 -9 -9 -9 -9
-7 -7 -7 -6 -6 -6 -6 -7 -7 -6 -6 -7 -7 -6 -7 -8 -10 -10 -10 -10 -10 -9
-7 -8 -6 -6 -6 -6 -7 -7 -7 -7 -7 -7 -7 -7 -8 -10 -10 -10 -10 -10 -9 -9
-9 -7 -7 -7 -7 -7 -8 -7 -8 -8 -7 -7 -8 -8 -9 -10 -10 -10 -10 -10 -9 -9
-8 -8 -8 -8 -8 -8 -8 -8 -8 -8 -8 -7 -8 -8 -9 -11 -10 -10 -10 -10 -9 -9
-9 -8 -9 -9 -9 -9 -8 -8 -8 -8 -8 -8 -8 -9 -8 -10 -10 -10 -10 -9 -9 -10
-9 -9 -9 -9 -9 -9 -9 -9 -8 -9 -9 -9 -9 -9 -9 -10 -10 -10 -9 -9 -10 -10
-10 -10 -10 -10 -10 -9 -9 -9 -9 -9 -9 -9 -9 -9 -11 -11 -10 -10 -9 -10 -10 -11
Height
1489 1493 1495 1496 1497 1497 1497 1496 1496 1495 1493 1491 1490 1489 1487 1486 1484 1482 1480 1479 1477 1475
1486 1490 1492 1493 1493 1494 1493 1492 1491 1490 1489 1487 1486 1484 1483 1481 1479 1477 1476 1474 1472 1469
1484 1486 1488 1489 1490 1490 1489 1488 1487 1486 1484 1483 1482 1480 1478 1476 1474 1473 1472 1469 1466 1464
1481 1483 1485 1486 1486 1486 1485 1484 1483 1482 1480 1479 1477 1475 1474 1471 1469 1468 1466 1464 1461 1459
1478 1480 1481 1482 1482 1481 1481 1480 1479 1478 1476 1475 1473 1470 1469 1467 1464 1462 1460 1458 1455 1453
1476 1477 1478 1478 1478 1477 1477 1476 1476 1474 1473 1470 1468 1467 1465 1462 1460 1458 1455 1453 1451 1448
1474 1475 1475 1475 1474 1474 1473 1472 1472 1471 1468 1466 1464 1462 1460 1458 1455 1453 1450 1447 1445 1442
1473 1473 1474 1474 1473 1471 1470 1469 1469 1467 1465 1462 1461 1458 1455 1453 1451 1448 1445 1442 1440 1437
1470 1471 1472 1471 1470 1468 1467 1466 1465 1464 1462 1459 1457 1454 1451 1451 1447 1443 1441 1437 1434 1431
1468 1469 1469 1468 1466 1466 1466 1463 1462 1461 1460 1456 1453 1449 1446 1445 1441 1438 1435 1430 1427 1423
1465 1466 1466 1465 1464 1463 1464 1462 1460 1456 1455 1452 1449 1445 1441 1440 1436 1433 1429 1424 1420 1414
1462 1462 1462 1462 1461 1461 1461 1460 1458 1453 1449 1448 1445 1440 1436 1435 1431 1428 1423 1419 1414 1408
1459 1458 1459 1459 1458 1459 1458 1457 1455 1451 1446 1444 1440 1437 1431 1432 1426 1423 1417 1412 1406 1402
1457 1455 1455 1456 1456 1456 1456 1453 1451 1448 1445 1441 1436 1433 1430 1428 1425 1419 1413 1406 1401 1396
Wind_Speed
24 21 18 15 12 10 9 9 9 9 10 10 11 12 13 14 16 18 20 21 22 23
23 20 16 13 11 9 9 9 9 9 9 10 11 12 14 15 17 18 20 22 22 23
20 17 14 12 10 9 9 9 9 9 9 10 11 13 14 16 18 20 20 22 22 22
19 16 13 11 9 9 9 9 9 9 10 11 12 13 16 17 19 20 20 20 21 22
17 14 11 10 9 8 8 9 9 10 10 12 13 14 17 18 19 20 21 20 21 23
15 12 10 9 8 8 8 8 9 10 11 13 14 15 17 19 19 20 19 21 23 25
11 8 7 6 7 8 8 8 9 10 12 13 15 16 18 19 19 20 22 24 26 27
6 3 6 9 8 7 8 9 10 10 12 13 15 16 19 19 20 22 24 25 26 28
7 4 10 8 8 7 8 9 10 10 12 13 14 16 16 15 19 21 24 27 29 30
6 11 10 8 7 7 8 8 8 9 11 13 14 16 17 16 20 22 25 27 29 31
11 10 8 6 6 7 7 7 8 8 11 13 14 16 18 18 20 24 26 30 31 33
9 8 6 6 6 6 5 7 7 9 12 14 15 17 19 19 24 26 30 30 33 35
7 6 5 5 5 5 5 6 8 10 12 14 16 18 19 21 24 31 32 34 38 36
6 4 4 5 5 4 5 6 9 11 12 14 18 20 20 19 25 30 34 37 38 39
Wind_Direction
198 202 204 208 215 227 242 258 276 287 297 305 311 312 315 319 319 320 318 315 312 309
197 200 204 211 221 236 254 270 279 287 297 304 307 311 315 317 316 316 316 314 312 311
196 200 207 216 229 246 263 272 280 290 299 304 307 313 316 317 317 318 318 315 316 314
199 204 211 222 238 256 265 274 284 291 299 306 312 317 317 317 318 318 317 316 314 316
202 207 215 229 247 260 271 276 288 299 307 311 315 318 315 315 318 319 318 319 318 318
203 210 223 240 254 262 272 287 295 305 309 312 314 316 314 316 318 317 319 323 321 319
206 218 240 256 268 267 277 290 298 305 310 313 316 318 314 312 318 324 325 323 319 320
210 253 276 262 265 276 286 293 301 307 309 313 317 317 316 322 327 318 319 320 315 312
231 261 255 257 265 276 286 294 302 310 313 318 322 320 320 316 312 317 314 316 318 317
235 246 247 252 266 282 290 298 309 316 318 323 326 325 324 324 316 316 318 317 320 322
237 241 246 258 272 283 297 305 312 322 325 330 339 332 330 326 321 322 324 327 328 325
233 237 246 260 272 284 298 306 318 332 344 339 342 338 333 337 326 327 328 331 330 325
232 234 247 256 266 288 307 316 329 346 347 347 345 341 342 335 331 328 333 331 323 322
237 234 241 259 272 282 303 322 327 337 343 348 351 352 344 337 331 331 328 322 322 320